Regional Weather Roundup
Issued by NWS Goodland, KS

Home | Current Version | Previous Version | Text Only | Print | Product List | Glossary On
Versions: 1 2 3 4 5 6 7 8 9 10 11 12 13 14 15 16 17 18 19 20 21 22 23 24 25 26 27 28 29 30 31 32 33 34 35 36 37 38 39 40 41 42 43 44 45 46 47 48 49 50
000
ASUS43 KGLD 211259
RWRGLD

GOODLAND FORECAST AREA HOURLY WEATHER ROUNDUP
NATIONAL WEATHER SERVICE GOODLAND KS
700 AM MDT SUN SEP 21 2014

...OFFICIAL OBSERVATIONS...

CITY           SKY/WX    TMP DP  RH WIND       PRES   REMARKS
GOODLAND KS    MOCLDY    50  46  86 NW5       30.35R
HILL CITY KS   PTCLDY    54  46  74 N9        30.27R
IMPERIAL NEB   PTCLDY    48  43  82 MISG      30.33R
MCCOOK NEB     PTCLDY    50  45  83 CALM      30.31R
AKRON CO       CLOUDY    54  45  71 CALM      30.38R
BURLINGTON CO  CLOUDY    53  46  77 NE3       30.35R
LIMON CO       CLOUDY    55  43  63 SE6       30.40R
$$

...UNOFFICIAL OBSERVATIONS...

CITY           SKY/WX    TMP DP  RH WIND       PRES   REMARKS
COLBY KS       CLEAR     55  48  76 NW7       30.32R
GOVE KS          N/A     53  32  45 MISG        N/A
NORTON KS      CLEAR     54  43  66 NW8       30.27R
SHARON SPRINGS   N/A     51  46  82 CALM        N/A
WAKEENEY KS      N/A     55  46  72 MISG        N/A
TRENTON NEB      N/A     51  32  48 N8          N/A
KIT CARSON CO    N/A     58  41  54 CALM        N/A
YUMA CO          N/A     53  47  80 CALM        N/A
$$



USA.gov is the U.S. government's official web portal to all federal, state and local government web resources and services.